Almo, KY

8:33 AM CDT on August 24, 2016 (GMT -0500)
Kyle-Oakley

Weather History for KCEY - February, 2012

Change the Weather History Date:

Wednesday, February 29, 2012

  Actual Average (KPAH) Record (KPAH)
Temperature  
Mean Temperature 62 °F 43 °F  
Max Temperature 68 °F 54 °F 76 °F (1972)
Min Temperature 55 °F 33 °F 17 °F (1960)
Degree Days  
Heating Degree Days 4 22  
Month to date heating degree days 744  
Since 1 July heating degree days 3318  
Cooling Degree Days 0 0  
Month to date cooling degree days 0  
Year to date cooling degree days 0  
Growing Degree Days 12 (Base 50)    
Moisture  
Dew Point 54 °F    
Average Humidity 73    
Maximum Humidity 100    
Minimum Humidity 37    
Precipitation  
Precipitation 1.22 in 0.13 in 1.10 in (1944)
Month to date precipitation 3.91  
Year to date precipitation 7.59  
Snow  
Snow 0.00 in 0.10 in T in (2012)
Month to date snowfall 3.2  
Since 1 July snowfall 8.5  
Snow Depth -    
Sea Level Pressure  
Sea Level Pressure 29.82 in    
Wind  
Wind Speed 16 mph (SW)    
Max Wind Speed 24 mph    
Max Gust Speed 47 mph    
Visibility 9 miles    
Events      
T = Trace of Precipitation, MM = Missing Value Source: NWS Daily Summary

Daily Weather History Graph

Daily Weather History Graph

Search for Another Location

Airport or City:

Trip Planner

Search our weather history database for the weather conditions in past years. The results will help you decide how hot, cold, wet, or windy it might be!

Date:

Astronomy

Feb. 29, 2012 Rise Set
Actual Time 6:24 AM CST 5:47 PM CST
Civil Twilight 5:58 AM CST 6:13 PM CST
Nautical Twilight 5:28 AM CST 6:43 PM CST
Astronomical Twilight 4:59 AM CST 7:13 PM CST
Moon 10:27 AM CST (2/29) 12:22 AM CST (2/29)
Length of Visible Light 12h 14m
Length of Day
11h 22m
Waxing Crescent, 47% of the Moon is Illuminated
Feb 29
Waxing Crescent
Feb 29
First Quarter
Mar 8
Full
Mar 14
Last Quarter
Mar 22
New

Hourly Weather History & Observations

Time (CST) Temp. Dew Point Humidity Pressure Visibility Wind Dir Wind Speed Gust Speed Precip Events Conditions
12:15 AM 62.6 °F 59.0 °F 88% 29.90 in 10.0 mi South 15.0 mph 21.9 mph N/A   Overcast
12:35 AM 62.6 °F 59.0 °F 88% 29.90 in 9.0 mi South 13.8 mph 19.6 mph 0.01 in   Overcast
12:55 AM 62.6 °F 60.8 °F 94% 29.89 in 10.0 mi South 10.4 mph 20.7 mph 0.01 in   Overcast
1:15 AM 62.6 °F 60.8 °F 94% 29.87 in 10.0 mi South 16.1 mph 24.2 mph N/A   Overcast
1:35 AM 64.4 °F 62.6 °F 94% 29.87 in 10.0 mi South 18.4 mph 27.6 mph N/A   Overcast
1:55 AM 64.4 °F 62.6 °F 94% 29.86 in 10.0 mi South 19.6 mph 33.4 mph N/A   Overcast
2:15 AM 64.4 °F 62.6 °F 94% 29.86 in 10.0 mi South 18.4 mph 33.4 mph N/A   Overcast
2:35 AM 64.4 °F 62.6 °F 94% 29.86 in 10.0 mi South 18.4 mph 27.6 mph N/A   Overcast
2:55 AM 66.2 °F 62.6 °F 88% 29.85 in 8.0 mi South 15.0 mph 28.8 mph N/A   Overcast
3:15 AM 66.2 °F 62.6 °F 88% 29.84 in 10.0 mi South 18.4 mph 32.2 mph N/A   Overcast
3:35 AM 66.2 °F 62.6 °F 88% 29.84 in 10.0 mi South 19.6 mph 32.2 mph N/A   Overcast
3:55 AM 66.2 °F 62.6 °F 88% 29.84 in 10.0 mi SSW 19.6 mph 29.9 mph N/A   Overcast
4:15 AM 66.2 °F 62.6 °F 88% 29.85 in 10.0 mi South 16.1 mph 24.2 mph N/A   Overcast
4:35 AM 66.2 °F 62.6 °F 88% 29.86 in 10.0 mi South 15.0 mph 24.2 mph N/A   Overcast
4:55 AM 68.0 °F 62.6 °F 83% 29.85 in 10.0 mi South 18.4 mph 31.1 mph N/A   Mostly Cloudy
5:15 AM 68.0 °F 62.6 °F 83% 29.84 in 10.0 mi South 15.0 mph 31.1 mph N/A   Mostly Cloudy
5:35 AM 68.0 °F 62.6 °F 83% 29.85 in 10.0 mi SSW 13.8 mph 28.8 mph N/A   Overcast
5:55 AM 68.0 °F 62.6 °F 83% 29.84 in 10.0 mi South 15.0 mph 24.2 mph N/A   Overcast
6:15 AM 68.0 °F 62.6 °F 83% 29.85 in 10.0 mi SSW 16.1 mph 24.2 mph N/A   Overcast
6:35 AM 68.0 °F 60.8 °F 78% 29.84 in 10.0 mi SSW 20.7 mph 27.6 mph N/A   Overcast
6:55 AM 68.0 °F 60.8 °F 78% 29.82 in 10.0 mi South 16.1 mph 27.6 mph N/A   Overcast
7:15 AM 68.0 °F 60.8 °F 78% 29.81 in 10.0 mi South 24.2 mph 34.5 mph N/A   Mostly Cloudy
7:35 AM 68.0 °F 60.8 °F 78% 29.82 in 10.0 mi SSW 17.3 mph 32.2 mph N/A   Mostly Cloudy
7:55 AM 68.0 °F 60.8 °F 78% 29.84 in 10.0 mi SSW 18.4 mph 35.7 mph N/A   Overcast
8:15 AM 68.0 °F 60.8 °F 78% 29.84 in 10.0 mi SSW 16.1 mph 32.2 mph N/A   Overcast
8:35 AM 68.0 °F 62.6 °F 83% 29.83 in 7.0 mi SSW 18.4 mph 27.6 mph N/A   Mostly Cloudy
8:55 AM 66.2 °F 62.6 °F 88% 29.81 in 6.0 mi West 11.5 mph 16.1 mph 0.08 in   Mostly Cloudy
9:15 AM 62.6 °F 62.6 °F 100% 29.82 in 0.2 mi West 21.9 mph 47.2 mph 0.55 in   Overcast
9:35 AM 60.8 °F 59.0 °F 94% 29.83 in 0.8 mi SW 15.0 mph 25.3 mph 0.87 in   Overcast
9:55 AM 59.0 °F 59.0 °F 100% 29.83 in 0.8 mi West 17.3 mph 27.6 mph 1.08 in   Overcast
10:15 AM 57.2 °F 55.4 °F 94% 29.83 in 3.0 mi West 18.4 mph 24.2 mph 0.04 in   Mostly Cloudy
10:35 AM 55.4 °F 51.8 °F 88% 29.82 in 10.0 mi WSW 16.1 mph - 0.05 in   Mostly Cloudy
10:55 AM 57.2 °F 50.0 °F 77% 29.82 in 10.0 mi SW 12.7 mph 19.6 mph 0.05 in   Partly Cloudy
11:15 AM 59.0 °F 48.2 °F 67% 29.81 in 10.0 mi SW 11.5 mph 18.4 mph N/A   Partly Cloudy
11:35 AM 62.6 °F 53.6 °F 72% 29.80 in 10.0 mi WSW 15.0 mph - N/A   Clear
11:55 AM 62.6 °F 53.6 °F 72% 29.82 in 10.0 mi WSW 20.7 mph 26.5 mph N/A   Mostly Cloudy
12:15 PM 60.8 °F 50.0 °F 68% 29.81 in 10.0 mi WSW 13.8 mph 19.6 mph N/A   Overcast
12:35 PM 60.8 °F 48.2 °F 63% 29.81 in 10.0 mi WSW 13.8 mph - N/A   Overcast
12:55 PM 59.0 °F 46.4 °F 63% 29.77 in 10.0 mi WSW 11.5 mph - N/A   Mostly Cloudy
1:15 PM 59.0 °F 44.6 °F 59% 29.78 in 10.0 mi WSW 13.8 mph 17.3 mph N/A   Partly Cloudy
1:35 PM 62.6 °F 44.6 °F 52% 29.77 in 10.0 mi WSW 12.7 mph - N/A   Mostly Cloudy
1:55 PM 64.4 °F 44.6 °F 49% 29.76 in 10.0 mi WSW 13.8 mph - N/A   Scattered Clouds
2:15 PM 64.4 °F 44.6 °F 49% 29.76 in 10.0 mi SW 16.1 mph 20.7 mph N/A   Mostly Cloudy
2:55 PM 66.2 °F 50.0 °F 56% 29.76 in 10.0 mi WSW 17.3 mph 21.9 mph N/A   Scattered Clouds
3:15 PM 66.2 °F 53.6 °F 64% 29.75 in 10.0 mi SW 18.4 mph 25.3 mph N/A   Partly Cloudy
3:55 PM 66.2 °F 53.6 °F 64% 29.74 in 10.0 mi SW 16.1 mph - N/A   Clear
4:15 PM 66.2 °F 51.8 °F 60% 29.74 in 10.0 mi SW 18.4 mph 21.9 mph N/A   Clear
4:35 PM 66.2 °F 51.8 °F 60% 29.74 in 10.0 mi WSW 11.5 mph - N/A   Clear
4:55 PM 66.2 °F 51.8 °F 60% 29.73 in 10.0 mi SW 16.1 mph - N/A   Clear
5:15 PM 64.4 °F 51.8 °F 64% 29.74 in 10.0 mi WSW 8.1 mph - N/A   Clear
5:35 PM 64.4 °F 51.8 °F 64% 29.75 in 10.0 mi WSW 8.1 mph - N/A   Clear
5:55 PM 62.6 °F 50.0 °F 63% 29.77 in 10.0 mi WSW 8.1 mph - N/A   Clear
6:15 PM 64.4 °F 48.2 °F 56% 29.78 in 10.0 mi West 13.8 mph 20.7 mph N/A   Clear
6:35 PM 62.6 °F 41.0 °F 45% 29.79 in 10.0 mi WSW 15.0 mph 23.0 mph N/A   Clear
6:55 PM 62.6 °F 35.6 °F 37% 29.80 in 10.0 mi WSW 12.7 mph 19.6 mph N/A   Clear
7:15 PM 59.0 °F 35.6 °F 42% 29.82 in 10.0 mi WSW 11.5 mph - N/A   Clear
7:35 PM 57.2 °F 35.6 °F 44% 29.82 in 10.0 mi WSW 11.5 mph - N/A   Clear
7:55 PM 55.4 °F 35.6 °F 47% 29.83 in 10.0 mi WSW 10.4 mph - N/A   Clear
8:15 PM 55.4 °F 35.6 °F 47% 29.84 in 10.0 mi WSW 10.4 mph - N/A   Clear
8:35 PM 55.4 °F 35.6 °F 47% 29.85 in 10.0 mi WSW 8.1 mph - N/A   Clear
8:55 PM 53.6 °F 35.6 °F 51% 29.86 in 10.0 mi WSW 10.4 mph - N/A   Clear
9:15 PM 53.6 °F 35.6 °F 51% 29.87 in 10.0 mi WSW 10.4 mph - N/A   Clear
9:35 PM 53.6 °F 35.6 °F 51% 29.88 in 10.0 mi WSW 9.2 mph - N/A   Clear
9:55 PM 53.6 °F 33.8 °F 47% 29.88 in 10.0 mi WSW 10.4 mph - N/A   Clear
10:55 PM 53.6 °F 30.2 °F 41% 29.90 in 10.0 mi WSW 12.7 mph - N/A   Clear
11:15 PM 51.8 °F 30.2 °F 44% 29.90 in 10.0 mi West 10.4 mph - N/A   Clear
11:35 PM 51.8 °F 28.4 °F 41% 29.91 in 10.0 mi WSW 8.1 mph - N/A   Clear
11:55 PM 50.0 °F 28.4 °F 43% 29.91 in 10.0 mi West 9.2 mph - N/A   Clear